Laredo, TX

4:42 PM CDT on July 24, 2016 (GMT -0500)
Laredo International

Weather History for KLRD - June, 2013

Change the Weather History Date:

Monday, June 24, 2013

  Actual Average Record
Temperature  
Mean Temperature 91 °F 88 °F  
Max Temperature 102 °F 99 °F 109 °F (1949)
Min Temperature 80 °F 77 °F 63 °F (1908)
Degree Days  
Heating Degree Days 0 0  
Month to date heating degree days 0 0  
Since 1 June heating degree days 0 0  
Since 1 July heating degree days 517 926  
Cooling Degree Days 26 23  
Month to date cooling degree days 549 525  
Year to date cooling degree days 1750 1668  
Since 1 June cooling degree days 549 525  
Growing Degree Days 40 (Base 50)    
Moisture  
Dew Point 67 °F    
Average Humidity 51    
Maximum Humidity 77    
Minimum Humidity 26    
Precipitation  
Precipitation 0.00 in 0.09 in 2.19 in (1947)
Month to date precipitation 2.01 1.77  
Year to date precipitation 9.09 8.64  
Sea Level Pressure  
Sea Level Pressure 29.90 in    
Wind  
Wind Speed 19 mph (SE)    
Max Wind Speed 29 mph    
Max Gust Speed 36 mph    
Visibility 10 miles    
Events      
T = Trace of Precipitation, MM = Missing Value Source: NWS Daily Summary

Daily Weather History Graph

Daily Weather History Graph

Search for Another Location

Airport or City:

Trip Planner

Search our weather history database for the weather conditions in past years. The results will help you decide how hot, cold, wet, or windy it might be!

Date:

Astronomy

Jun. 24, 2013 Rise Set
Actual Time 6:43 AM CDT 8:36 PM CDT
Civil Twilight 6:17 AM CDT 9:03 PM CDT
Nautical Twilight 5:45 AM CDT 9:35 PM CDT
Astronomical Twilight 5:11 AM CDT 10:09 PM CDT
Moon 9:52 PM CDT 8:04 AM CDT
Length of Visible Light 14h 46m
Length of Day
13h 52m
Full, 98% of the Moon is Illuminated
Jun 24
Full
Jun 29
Last Quarter
Jul 8
New
Jul 15
First Quarter
Jul 22
Full

Hourly Weather History & Observations

Time (CDT) Temp. Heat Index Dew Point Humidity Pressure Visibility Wind Dir Wind Speed Gust Speed Precip Events Conditions
12:56 AM 82.9 °F 85.4 °F 66.9 °F 58% 29.92 in 10.0 mi SE 16.1 mph - N/A   Clear
1:56 AM 81.9 °F 84.2 °F 66.9 °F 60% 29.92 in 10.0 mi SE 13.8 mph - N/A   Mostly Cloudy
2:56 AM 81.0 °F 84.4 °F 70.0 °F 69% 29.91 in 10.0 mi SSE 16.1 mph - N/A   Clear
3:56 AM 81.0 °F 84.7 °F 70.9 °F 71% 29.91 in 10.0 mi SSE 15.0 mph 21.9 mph N/A   Partly Cloudy
4:56 AM 79.9 °F - 72.0 °F 77% 29.91 in 10.0 mi SE 13.8 mph - N/A   Partly Cloudy
5:56 AM 79.9 °F - 72.0 °F 77% 29.91 in 10.0 mi SE 11.5 mph - N/A   Scattered Clouds
6:56 AM 79.9 °F - 72.0 °F 77% 29.92 in 10.0 mi SE 12.7 mph - N/A   Clear
7:56 AM 81.9 °F 86.6 °F 72.0 °F 72% 29.94 in 10.0 mi SSE 16.1 mph 23.0 mph N/A   Clear
8:56 AM 84.9 °F 90.7 °F 72.0 °F 65% 29.95 in 10.0 mi SSE 17.3 mph - N/A   Unknown
9:56 AM 88.9 °F 93.8 °F 70.0 °F 53% 29.95 in 10.0 mi SE 25.3 mph 29.9 mph N/A   Clear
10:56 AM 91.9 °F 95.9 °F 68.0 °F 45% 29.95 in 10.0 mi SE 19.6 mph 27.6 mph N/A   Partly Cloudy
11:56 AM 95.0 °F 97.9 °F 65.8 °F 38% 29.94 in 10.0 mi SSE 23.0 mph 28.8 mph N/A   Clear
12:56 PM 97.0 °F 98.8 °F 63.9 °F 33% 29.93 in 10.0 mi SSE 24.2 mph 32.2 mph N/A   Clear
1:56 PM 97.9 °F 98.8 °F 61.9 °F 30% 29.90 in 10.0 mi South 25.3 mph 31.1 mph N/A   Clear
2:56 PM 99.9 °F 100.4 °F 59.9 °F 27% 29.88 in 10.0 mi SSE 19.6 mph 33.4 mph N/A   Clear
3:56 PM 100.9 °F 101.6 °F 59.9 °F 26% 29.86 in 10.0 mi SSE 20.7 mph - N/A   Clear
4:56 PM 101.8 °F 103.0 °F 61.0 °F 26% 29.84 in 10.0 mi SSE 21.9 mph 26.5 mph N/A   Clear
5:56 PM 99.9 °F 102.7 °F 63.9 °F 31% 29.82 in 10.0 mi SSE 18.4 mph 27.6 mph N/A   Clear
6:56 PM 99.0 °F 102.3 °F 64.9 °F 33% 29.81 in 10.0 mi SSE 23.0 mph 27.6 mph N/A   Clear
7:56 PM 95.9 °F 99.0 °F 65.8 °F 37% 29.83 in 10.0 mi SE 18.4 mph - N/A   Clear
8:56 PM 92.8 °F 97.1 °F 68.0 °F 44% 29.84 in 10.0 mi SE 18.4 mph - N/A   Clear
9:56 PM 90.0 °F 94.5 °F 68.9 °F 50% 29.87 in 10.0 mi SE 21.9 mph 29.9 mph N/A   Clear
10:56 PM 86.9 °F 91.7 °F 70.0 °F 57% 29.90 in 9.0 mi SE 18.4 mph - N/A   Clear
11:56 PM 86.0 °F 91.1 °F 70.9 °F 60% 29.93 in 9.0 mi SE 24.2 mph 28.8 mph N/A   Clear